Regional Weather Roundup
Issued by NWS

Home | Current Version | Previous Version | Graphics & Text | Print | Product List | Glossary Off
Versions: 1 2 3 4 5 6 7 8 9 10 11 12 13 14 15 16 17 18 19 20 21 22 23 24 25 26 27 28 29 30 31 32 33 34 35 36 37 38 39 40 41 42 43 44 45 46 47 48 49 50

000
ASUS43 KMKX 250359
RWRWI

WISCONSIN REGIONAL WEATHER ROUNDUP
NATIONAL WEATHER SERVICE MILWAUKEE/SULLIVAN WI
1100 PM CDT THU JUL 24 2014

NOTE: "FAIR" INDICATES FEW OR NO CLOUDS BELOW 12,000 FEET WITH NO
SIGNIFICANT WEATHER AND/OR OBSTRUCTIONS TO VISIBILITY.

WIZ001-002-006>008-014>016-023>028-250500-
NORTHWEST WISCONSIN

CITY           SKY/WX    TMP DP  RH WIND       PRES   REMARKS
SUPERIOR ARPT  CLOUDY    60  56  88 CALM      29.92F
ASHLAND        CLOUDY    65  59  81 S5        29.93F
HAYWARD        LGT RAIN  68  58  70 S5        29.96F
SIREN          CLOUDY    68  59  72 SE5       29.95F
RICE LAKE      PTCLDY    67  58  73 E5        29.99F
LADYSMITH      PTCLDY    64  59  82 SE5       30.01F
EAU CLAIRE     NOT AVBL
MENOMONIE      CLEAR     65  60  85 CALM      29.98S
NEW RICHMOND   PTCLDY    65  60  82 CALM      29.97S
OSCEOLA        CLOUDY    68  61  78 SE3       29.98S
$$

WIZ003>005-009-010-017-018-250500-
NORTH CENTRAL WISCONSIN

CITY           SKY/WX    TMP DP  RH WIND       PRES   REMARKS
WOODRUFF       MOCLDY    60  51  73 CALM      30.02F
RHINELANDER    MOCLDY    61  55  81 CALM      30.02F
EAGLE RIVER    MOCLDY    58  55  92 CALM      30.02F
LAND O LAKES   MOCLDY    57  55  93 CALM      30.03F
PHILLIPS       PTCLDY    61  58  88 CALM      30.00F
TOMAHAWK       MOCLDY    57  55  92 CALM      30.02F
MEDFORD        MOCLDY    58  56  93 CALM      30.03S
MERRILL        MOCLDY    60  57  91 CALM      30.03R
$$

WIZ029-030-035-036-043>047-250500-
CENTRAL WISCONSIN

CITY           SKY/WX    TMP DP  RH WIND       PRES   REMARKS
WAUSAU         MOCLDY    66  56  70 E3        30.01R
MOSINEE        CLOUDY    64  59  82 CALM      30.04R
MARSHFIELD     PTCLDY    65  58  78 CALM      30.02R
STEVENS POINT  MOCLDY    65  55  71 CALM      30.02R
WAUPACA        MOCLDY    67  58  71 CALM      30.01S
WAUTOMA        NOT AVBL
WISC RAPIDS    PTCLDY    66  55  67 SW3       30.02S
CAMP DOUGLAS   NOT AVBL
$$

WIZ011>013-019>022-031-037>040-048>050-250500-
NORTHEAST WISCONSIN

CITY           SKY/WX    TMP DP  RH WIND       PRES   REMARKS
ANTIGO         MOCLDY    58  55  89 CALM      30.04R
STURGEON BAY   MOCLDY    61  43  51 S9        30.02S
GREEN BAY      MOCLDY    63  45  51 S8        30.03R
MANITOWOC      NOT AVBL
APPLETON       MOCLDY    64  50  59 S9        30.02S
CLINTONVILLE   CLOUDY    63  54  72 SE6       30.01S
OSHKOSH        CLOUDY    63  48  58 S12       30.02R
$$

WIZ032>034-041-042-053>061-250500-
SOUTHWEST WISCONSIN

CITY           SKY/WX    TMP DP  RH WIND       PRES   REMARKS
LA CROSSE      CLEAR     70  60  70 SE5       29.97R
SPARTA         CLEAR     63  56  79 CALM      29.99F
VIROQUA        FAIR      64  60  87 SE5       30.00S
BOSCOBEL       CLEAR     65  59  81 CALM      30.00R
PRAIRIE DU CHI CLEAR     68  58  70 CALM      29.99R
PLATTEVILLE    FAIR      65  58  79 SE8       30.01S
$$

WIZ056-057-062-063-064-067-068-250500-
SOUTH CENTRAL WISCONSIN

CITY           SKY/WX    TMP DP  RH WIND       PRES   REMARKS
BARABOO/DELLS  CLOUDY    65  56  74 S5        30.02S
LONE ROCK      NOT AVBL
WATERTOWN      PTCLDY    61  47  60 SE7       30.03S
MADISON        CLEAR     69  57  65 VRB5      30.02S
MIDDLETON      FAIR      67  55  65 CALM      30.02S
MONROE         PTCLDY    63  57  82 S7        30.03S
JANESVILLE     CLEAR     61  54  77 SE8       30.03S
$$

WIZ051-052-058>065-066-070>072-250500-
SOUTHEAST WISCONSIN

CITY           SKY/WX    TMP DP  RH WIND       PRES   REMARKS
MILWAUKEE      PTCLDY    62  43  49 S5        30.05R
WAUKESHA       PTCLDY    59  41  51 S5        30.06S
MILWAUKEE/TIMM PTCLDY    61  39  44 S6        30.05S
RACINE         PTCLDY    60  51  72 S5        30.06F
BURLINGTON     PTCLDY    55  47  75 CALM      30.05S
KENOSHA        CLEAR     60  49  66 S6        30.06S
FOND DU LAC    CLOUDY    62  45  53 S8        30.03R
SHEBOYGAN      PTCLDY    57  46  66 S3        30.04R
WEST BEND      CLOUDY    59  41  51 CALM      30.05R
JUNEAU         PTCLDY    62  43  51 SE9       30.05S
$$

LSZ147-162-250500-
LAKE SUPERIOR

STATION/POSITION TIME  TEMP    WIND        PRES    WAVE
                       AIR SEA DIR/SP/G            HT/PER
                 (UTC) (F)     (DEG/KT/KT) (MB)    (FT/S)
$$

LMZ867-665-643>646-250500-
LAKE MICHIGAN

STATION/POSITION TIME  TEMP    WIND        PRES    WAVE
                       AIR SEA DIR/SP/G            HT/PER
                 (UTC) (F)     (DEG/KT/KT) (MB)    (FT/S)
$$

TC  - TEMPERATURE IN CELSIUS
VSB - VISIBILITY IN STATUTE MILES
WCI - WIND CHILL INDEX
HX  - HEAT INDEX




USA.gov is the U.S. government's official web portal to all federal, state and local government web resources and services.